www.pogodaiklimat.ru

Погода и климат >> Архив погоды >> Украина >> Изюм


ПОГОДА в Изюме

  • Прогноз погоды в Изюме
  • Монитор погоды в Изюме

АРХИВ ПОГОДЫ в Изюме

Время (UTC), дата Ветер
(напр.,м/с)
 
Видим.   Явления Облачность Т
(С)
Тd
(С)
f
(%)
Тe
(С)
Тes
(С)
Комфортность P
(гПа)
Po
(гПа)
Тmin
(С)
Tmax
(С)
R
(мм)
R24
(мм)
S
(см)
06 15.09 штиль 0 20 км 4/0
[Ci fib]
+12.1 +3.8 57 +12 +17 1023.7 1014.2 +5.1 0.1
09 15.09 СЗ 4 20 км 6/6 1000 м
[Cu hum]
+20.6 +1.9 29 +21 +24 комфорт 1022.4 1013.2
12 15.09 СЗ 4 20 км 6/4 1000 м
[Cu Sc Ci fib]
+21.7 -2.5 20 +21 +23 комфорт 1020.8 1011.6
15 15.09 СЗ 2 20 км 8/0
[Ci fib]
+19.7 -0.5 26 +20 +21 1020.0 1010.8
18 15.09 штиль 0 20 км 3/0
[Ci fib]
+11.2 +5.8 69 +11 +11 1020.1 1010.6 +22.7
21 15.09 штиль 0 20 км 6/0
[Ci fib]
+6.9 +5.1 88 +6 +6 1019.6 1010.0
00 16.09 штиль 0 20 км ясно +5.2 +4.0 92 +4 +4 1018.3 1008.6
03 16.09 З 2 10 км 3/0
[Ci fib]
+10.7 +5.7 71 +10 +10 1016.2 1006.7
06 16.09 З 2 20 км ясно +18.0 +3.4 38 +19 +22 1014.2 1005.0 +4.6
09 16.09 СЗ 6 20 км ясно +23.5 +2.3 25 +23 +27 комфорт 1012.0 1003.0
12 16.09 З 6 20 км ясно +26.3 +2.9 22 +25 +27 комфорт 1009.4 1000.5
15 16.09 З 4 20 км ясно +24.4 +4.3 27 +24 +24 комфорт 1008.0 999.0
18 16.09 штиль 0 10 км 8/6 1000 м
[Sc Ac trans]
+20.9 +6.2 38 +22 +22 комфорт 1008.2 999.1 +26.7
21 16.09 ЮЗ 2 10 км 8/8 1000 м
[Sc]
+19.6 +5.4 39 +21 +21 комфорт 1007.6 998.5
00 17.09 штиль 0 10 км 10/8 1000 м
[Sc Ac und]
+18.8 +5.8 43 +19 +19 1006.9 997.8
03 17.09 З 2 10 км 10/8 1000 м
[Sc Ac cast Cc]
+17.1 +7.1 52 +17 +17 1007.0 997.8
06 17.09 СЗ 4 20 км 9/5 1000 м
[Sc Ac trans]
+18.7 +7.5 48 +19 +20 1007.2 998.1 +17.1
09 17.09 СЗ 4 20 км слаб. дождь 10/9 600 м
[Frnb As op]
+17.8 +5.7 45 +18 +18 1008.3 999.1
12 17.09 З 4 20 км {дождь} 10/0
[Ac As]
+17.2 +8.0 55 +17 +18 1007.7 998.5 0.0
15 17.09 З 2 20 км 3/0
[Ci fib]
+17.0 +7.9 55 +17 +18 1006.9 997.7
18 17.09 штиль 0 10 км ясно +13.7 +8.3 70 +13 +13 1007.8 998.5 +19.7 0.0
21 17.09 штиль 0 20 км ясно +12.8 +9.0 78 +12 +12 1007.7 998.4
00 18.09 штиль 0 20 км ясно +8.6 +7.1 90 +8 +8 1007.3 997.8
03 18.09 штиль 0 10 км ясно +6.0 +5.1 94 +5 +5 1006.1 996.6
06 18.09 СЗ 4 20 км 9/0
[Ac trans]
+14.7 +9.5 71 +14 +15 1005.0 995.8 +6.0
09 18.09 СЗ 2 19 км слаб. дождь 10/9 600 м
[Frnb As op]
+12.8 +11.3 91 +12 +12 1005.2 995.9
12 18.09 З 4 20 км {дождь} 9/9 1000 м
[Cu Sc]
+15.4 +9.0 66 +14 +15 1003.1 993.9
15 18.09 СЗ 6 20 км {ливн. осадки} 4/4 1000 м
[Sc diur, vesp]
+14.7 -0.3 36 +13 +13 1005.5 996.2
18 18.09 СЗ 6 10 км {ливн. осадки} ясно +12.2 +0.4 44 +10 +10 1008.8 999.4 +17.5 0.9
21 18.09 СЗ 4 20 км 6/6 1000 м
[Sc]
+10.4 +1.6 54 +8 +8 1010.4 1001.0
00 19.09 СЗ 4 20 км ясно +8.6 +3.7 71 +6 +6 1012.3 1002.8
03 19.09 З 4 10 км 3/3 1000 м
[Sc]
+8.2 +3.5 72 +5 +5 1014.6 1005.0
06 19.09 З 4 20 км 10/10 1000 м
[Sc]
+10.2 +4.9 70 +8 +8 1016.7 1007.2 +7.5
09 19.09 З 4 20 км 6/6 600 м
[Cu med, cong]
+15.6 +5.0 49 +15 +17 1017.4 1008.1
12 19.09 СЗ 4 20 км 8/3 600 м
[Cu med, cong Ac cuf]
+16.5 +3.7 42 +16 +17 1017.1 1007.8
15 19.09 З 2 20 км 4/3 1000 м
[Sc diur, vesp Ac cuf]
+14.8 +3.9 48 +15 +15 1017.2 1007.8
18 19.09 СЗ 2 10 км 4/0
[Ac trans]
+10.9 +4.4 64 +10 +10 1018.6 1009.1 +17.7
21 19.09 штиль 0 20 км ясно +3.7 +2.2 90 +3 +3 1018.7 1008.9
00 20.09 штиль 0 20 км 3/0
[Ci fib]
+1.7 +0.3 90 +1 +1 1018.9 1009.1
03 20.09 штиль 0 10 км ясно +0.9 +0.1 94 -0 -0 1018.4 1008.5
06 20.09 штиль 0 20 км 3/3 1000 м
[Sc]
+9.1 +4.1 71 +9 +12 1018.1 1008.5 +0.5
09 20.09 З 2 20 км 8/8 600 м
[Cb calv]
+15.8 +0.4 35 +16 +18 1016.4 1007.1
12 20.09 штиль 0 20 км слаб. ливневой дождь 10/8 600 м
[Cb calv Ci]
+15.2 +1.1 38 +15 +16 1014.7 1005.4
15 20.09 З 4 20 км {ливн. осадки} 8/8 600 м
[Cb calv]
+12.6 +2.8 51 +11 +11 1014.9 1005.5
18 20.09 штиль 0 10 км в посл. час ливневой дождь 6/3 1000 м
[Sc Ac trans]
+8.7 +7.4 92 +8 +8 1015.6 1006.1 +16.7 0.6
21 20.09 штиль 0 10 км 6/6 1000 м
[Sc]
+4.8 +3.6 92 +4 +4 1015.7 1006.0
00 21.09 штиль 0 20 км 4/0
[Ac trans]
+2.8 +1.8 93 +2 +2 1015.3 1005.5
03 21.09 штиль 0 10 км 9/9 1000 м
[Sc]
+3.8 +3.1 95 +3 +3 1016.2 1006.5
06 21.09 СЗ 2 20 км в посл. час ливневой дождь 10/10 1000 м
[Sc]
+6.7 +5.8 94 +4 +4 1017.0 1007.4 +2.7 0.0
09 21.09 СЗ 2 20 км 8/8 1000 м
[Cu med, cong]
+12.1 +4.9 61 +11 +13 1016.9 1007.5
12 21.09 С 2 20 км ливневой дождь 10/10 600 м
[Cb cap]
+12.8 +3.6 54 +12 +12 1017.1 1007.7 0.3
15 21.09 З 2 20 км в посл. час ливневой дождь 8/5 1000 м
[Sc diur, vesp Ac cuf]
+9.0 +5.2 77 +7 +7 1017.6 1008.0
18 21.09 штиль 0 10 км {ливн. осадки} ясно +6.0 +3.6 85 +5 +5 1018.4 1008.7 +14.6 1
21 21.09 З 2 10 км 10/0
[As trans]
+6.0 +1.8 74 +4 +4 1018.2 1008.5
00 22.09 ЮЗ 4 10 км 8/8 1000 м
[Sc]
+7.6 +0.2 59 +5 +5 1016.2 1006.6
03 22.09 ЮЗ 4 10 км слаб. дождь 10/0
[As op]
+8.8 +0.6 56 +6 +6 1012.9 1003.4

 

Местоположение метеостанции Изюм (Харьковская область, Украина): широта 49.18 долгота 37.30 высота над уровнем моря 78 м.

В архиве по умолчанию представлена погода в Изюме за последнюю неделю. Архивные данные за месяц целиком и за предыдущие месяцы, начиная с января 2011 года, Вы можете получить, выбрав интересующий диапазон дат из раскрывающегося списка и нажав кнопку "Ввод!".


*Определитесь, кто Вы:
робот инопланетянин человек

Внимание! Время в таблицах - всемирное. Для получения местного времени необходимо прибавить поправку, которая равна 2 ч.

Смотрите также архив погоды в соседних городах и на ближайших метеорологических станциях:

Погода в Купянске (Харьковская область, Украина) (58 км)
Погода в Сватово (Луганская область, Украина) (69 км)
Погода в Комсомольском (Донецкая область, Украина) (73 км)
Погода в Лозовой (Харьковская область, Украина) (78 км)
Погода в Артемовске (Донецкая область, Украина) (81 км)
Погода в Александрополе (Днепропетровская область, Украина) (85 км)
Погода в Великом Бурлуке (Харьковская область, Украина) (99 км)
Погода в Новопскове (Луганская область, Украина) (104 км)
Погода в Троицком (Луганская область, Украина) (107 км)
Погода в Харькове (Харьковская область, Украина) (122 км)

Пояснения к столбцам:

Ветер - указаны скорость ветра в м/с - средняя за 10 мин, порывы в срок и между сроками (в фигурных скобках) и направление, откуда дует ветер: С - северный, СВ - северо-восточный, В - восточный, ЮВ - юго-восточный, Ю - южный, ЮЗ - юго-западный, З - западный, СЗ - северо-западный.
Видимость - горизонтальная дальность видимости в метрах или километрах. При видимости от 1 до 10 км при отсутствии осадков обычно наблюдается дымка, при ухудшении видимости до 1 км и менее - туман. В сухую погоду видимость может ухудшаться дымом, пылью или мглою.
Явления - указаны атмосферные явления, наблюдавшиеся в срок или в последний час перед сроком; фигурными скобками обозначены явления, наблюдавшиеся между сроками (за 1-3 часа до срока); квадратными скобками обозначены град или гололедные отложения с указанием их диаметра в мм.
Облачность - указаны через наклонную черту общая и нижняя облачность в баллах и высота нижней границы облаков в метрах; квадратными скобками обозначены формы облаков: Ci - перистые, Cs - перисто-слоистые, Cc - перисто-кучевые, Ac - высококучевые, As - высокослоистые, Sc - слоисто-кучевые, Ns - слоисто-дождевые, Cu - кучевые, Cb - кучево-дождевые. Подробнее классификацию облаков см. в Атласе облаков (PDF).
T - Температура воздуха - температура, измеренная на высоте 2 м над землей.
Td - Температура точки росы - температура, при понижении до которой содержащийся в воздухе водяной пар достигнет насыщения.
f - Относительная влажность воздуха - влажноcть воздуха, измеренная на высоте 2 м над землей.
Te - Эффективная температура - температура, которую ощущает одетый по сезону человек в тени. Характеристика душности погоды. При расчете учитывается влияние влажности воздуха и скорости ветра на теплоощущения человека.
Tes - Эффективная температура на солнце - температура, которую ощущает человек, с поправкой на солнечный нагрев. Характеристика знойности погоды. Зависит от высоты солнца над горизонтом, облачности и скорости ветра. Ночью, в пасмурную погоду, а также при ветре 12 м/с и более поправка равна нулю.
P - Атмосферное давление - приведенное к уровню моря атмосферное давление.
Po - Атмосферное давление - измеренное на уровне метеостанции атмосферное давление.
Tmin - Минимальная температура - минимум температуры воздуха на высоте 2 м над землей.
Tmax - Максимальная температура - максимум температуры воздуха на высоте 2 м над землей.
R - Количество осадков - Количество выпавших осадков за период времени, мм. При наведении курсора мыши на число - период времени, за который выпало указанное количество осадков.
R24 - Количество осадков - Количество выпавших осадков за 24 часа, мм.
S - Снежный покров - Высота снежного покрова, см. При наведении курсора мыши на число - состояние снежного покрова и степень покрытия местности в баллах.